Omaha, IA

11:34 AM CDT on June 27, 2017 (GMT -0500)
Eppley Airfield

Weather History for KOMA - May, 2012

Change the Weather History Date:

Saturday, May 12, 2012

  Actual Average Record
Temperature  
Mean Temperature 62 °F 61 °F  
Max Temperature 72 °F 73 °F 93 °F (1956)
Min Temperature 51 °F 50 °F 32 °F (2013)
Degree Days  
Heating Degree Days 3 6  
Month to date heating degree days 22 82  
Since 1 July heating degree days 4762 6084  
Cooling Degree Days 0 2  
Month to date cooling degree days 58 13  
Year to date cooling degree days 126 29  
Growing Degree Days 12 (Base 50)    
Moisture  
Dew Point 39 °F    
Average Humidity 48    
Maximum Humidity 67    
Minimum Humidity 29    
Precipitation  
Precipitation 0.00 in 0.16 in 1.21 in (1908)
Month to date precipitation 2.66 1.72  
Year to date precipitation 9.85 8.24  
Snow  
Snow 0.00 in 0.00 in - ()
Month to date snowfall 0.0 0.1  
Since 1 July snowfall 20.4 26.5  
Snow Depth 0.00 in    
Sea Level Pressure  
Sea Level Pressure 30.29 in    
Wind  
Wind Speed 9 mph (North)    
Max Wind Speed 17 mph    
Max Gust Speed 21 mph    
Visibility 10 miles    
Events      
T = Trace of Precipitation, MM = Missing Value Source: NWS Daily Summary

Daily Weather History Graph

Daily Weather History Graph

Search for Another Location

Airport or City:

Trip Planner

Search our weather history database for the weather conditions in past years. The results will help you decide how hot, cold, wet, or windy it might be!

Date:

Astronomy

May. 12, 2012 Rise Set
Actual Time 6:07 AM CDT 8:32 PM CDT
Civil Twilight 5:36 AM CDT 9:04 PM CDT
Nautical Twilight 4:57 AM CDT 9:43 PM CDT
Astronomical Twilight 4:14 AM CDT 10:26 PM CDT
Moon 1:46 AM CDT (5/12) 12:48 PM CDT (5/12)
Length of Visible Light 15h 28m
Length of Day
14h 25m
Waning Gibbous, 52% of the Moon is Illuminated
May 12
Waning Gibbous
May 12
Last Quarter
May 20
New
May 28
First Quarter
Jun 4
Full

Hourly Weather History & Observations

Time (CDT) Temp. Dew Point Humidity Pressure Visibility Wind Dir Wind Speed Gust Speed Precip Events Conditions
12:52 AM 53.1 °F 37.0 °F 55% 30.27 in 10.0 mi North 10.4 mph - N/A   Mostly Cloudy
1:52 AM 52.0 °F 37.9 °F 59% 30.27 in 10.0 mi North 8.1 mph - N/A   Scattered Clouds
2:52 AM 51.1 °F 39.0 °F 63% 30.27 in 10.0 mi North 11.5 mph - N/A   Mostly Cloudy
3:52 AM 52.0 °F 39.9 °F 63% 30.29 in 10.0 mi North 9.2 mph - N/A   Overcast
4:52 AM 53.1 °F 39.9 °F 61% 30.30 in 10.0 mi North 10.4 mph - N/A   Overcast
5:52 AM 53.1 °F 41.0 °F 64% 30.32 in 10.0 mi North 10.4 mph - N/A   Mostly Cloudy
6:52 AM 53.1 °F 41.0 °F 64% 30.34 in 10.0 mi North 12.7 mph - N/A   Mostly Cloudy
7:52 AM 55.0 °F 42.1 °F 62% 30.35 in 10.0 mi North 10.4 mph - N/A   Scattered Clouds
8:52 AM 55.9 °F 41.0 °F 57% 30.36 in 10.0 mi North 12.7 mph - N/A   Scattered Clouds
9:52 AM 60.1 °F 39.0 °F 46% 30.35 in 10.0 mi NE 13.8 mph - N/A   Mostly Cloudy
10:52 AM 63.0 °F 37.0 °F 38% 30.35 in 10.0 mi NE 12.7 mph 20.7 mph N/A   Mostly Cloudy
11:52 AM 66.2 °F 37.4 °F 35% 30.35 in 10.0 mi NNE 8.1 mph - N/A   Mostly Cloudy
12:52 PM 69.1 °F 37.0 °F 31% 30.31 in 10.0 mi North 11.5 mph - N/A   Mostly Cloudy
1:52 PM 70.0 °F 37.0 °F 30% 30.30 in 10.0 mi North 6.9 mph 18.4 mph N/A   Mostly Cloudy
2:52 PM 70.0 °F 37.0 °F 30% 30.29 in 10.0 mi ENE 11.5 mph - N/A   Mostly Cloudy
3:52 PM 72.0 °F 39.0 °F 30% 30.27 in 10.0 mi NNE 15.0 mph 19.6 mph N/A   Overcast
4:52 PM 70.0 °F 37.0 °F 30% 30.25 in 10.0 mi North 15.0 mph - N/A   Mostly Cloudy
5:52 PM 71.1 °F 37.9 °F 30% 30.25 in 10.0 mi NNE 9.2 mph - N/A   Mostly Cloudy
6:52 PM 69.1 °F 37.0 °F 31% 30.24 in 10.0 mi North 8.1 mph - N/A   Mostly Cloudy
7:52 PM 66.0 °F 37.0 °F 34% 30.25 in 10.0 mi NNE 5.8 mph - N/A   Scattered Clouds
8:52 PM 64.0 °F 42.1 °F 45% 30.27 in 10.0 mi NNE 3.5 mph - N/A   Mostly Cloudy
9:52 PM 62.1 °F 44.1 °F 52% 30.27 in 10.0 mi NNW 3.5 mph - N/A   Mostly Cloudy
10:52 PM 61.0 °F 46.0 °F 58% 30.28 in 10.0 mi Calm Calm - N/A   Mostly Cloudy
11:52 PM 57.0 °F 46.9 °F 69% 30.27 in 10.0 mi NW 4.6 mph - N/A   Mostly Cloudy